GW1401 Weather Reports


Display with metric or nautical units.
time (UTC)temp
F
wind
direction
speed
MPH
gust
MPH
rain 1hr
in
rain 24hr
in
rain mn
in
humidity
%
barometer
mb
20260905120300 75 124 0.0 0.0 0.00 0.00 0.00 99 1017.9
20260905115754 75 149 0.0 0.0 0.00 0.00 0.00 99 1018.0
20260905115249 75 115 0.0 0.0 0.00 0.00 0.00 99 1018.3
20260905114748 74 127 0.0 0.0 0.00 0.00 0.00 99 1018.3
20260905114247 74 116 0.0 0.0 0.00 0.00 0.00 99 1018.3
20260905113746 74 101 0.0 0.0 0.00 0.00 0.00 98 1018.1
20260905113243 75 120 0.0 0.0 0.00 0.00 0.00 98 1018.1
20260905112737 75 127 0.0 0.0 0.00 0.00 0.00 98 1018.0
20260905112232 75 120 0.0 0.0 0.00 0.00 0.00 98 1017.7
20260905111727 75 121 0.0 1.0 0.00 0.00 0.00 98 1017.7
20260905111221 75 121 0.0 2.0 0.00 0.00 0.00 97 1018.2
20260905110720 75 126 0.0 0.0 0.00 0.00 0.00 97 1017.9
20260905110215 75 109 0.0 0.0 0.00 0.00 0.00 97 1017.6
20260905105710 75 112 0.0 0.0 0.00 0.00 0.00 96 1017.6
20260905105209 75 115 0.0 0.0 0.00 0.00 0.00 96 1017.5
20260905104704 75 118 0.0 0.0 0.00 0.00 0.00 96 1017.3
20260905104200 75 123 0.0 0.0 0.00 0.00 0.00 96 1017.1
20260905103655 75 131 0.0 0.0 0.00 0.00 0.00 96 1017.1
20260905103151 75 128 0.0 2.0 0.00 0.00 0.00 96 1017.3
20260905102646 74 132 0.0 0.0 0.00 0.00 0.00 96 1017.2
20260905102143 74 117 0.0 0.0 0.00 0.00 0.00 95 1017.0
20260905101641 74 107 0.0 0.0 0.00 0.00 0.00 95 1016.9
20260905101140 74 124 0.0 0.0 0.00 0.00 0.00 94 1017.1
20260905100636 74 122 0.0 0.0 0.00 0.00 0.00 94 1016.9
20260905100131 75 124 0.0 0.0 0.00 0.00 0.00 94 1016.9
20260905095624 75 121 0.0 0.0 0.00 0.00 0.00 93 1017.1
20260905095120 75 117 0.0 0.0 0.00 0.00 0.00 93 1016.9
20260905094615 75 118 0.0 0.0 0.00 0.00 0.00 92 1016.8
20260905094114 75 119 0.0 0.0 0.00 0.00 0.00 92 1016.9
20260905093614 76 118 0.0 0.0 0.00 0.00 0.00 92 1016.8
20260905093111 76 118 0.0 0.0 0.00 0.00 0.00 91 1016.7
20260905092610 76 118 0.0 0.0 0.00 0.00 0.00 91 1016.6
20260905092107 77 118 0.0 0.0 0.00 0.00 0.00 89 1016.6
20260905091606 77 118 0.0 0.0 0.00 0.00 0.00 88 1016.6
20260905091101 77 118 0.0 0.0 0.00 0.00 0.00 87 1016.5
20260905090601 77 118 0.0 0.0 0.00 0.00 0.00 87 1016.5
20260905090056 78 118 0.0 0.0 0.00 0.00 0.00 85 1016.5
20260905085554 78 118 0.0 0.0 0.00 0.00 0.00 84 1016.2
20260905085050 79 119 0.0 0.0 0.00 0.00 0.00 84 1016.4
20260905084549 79 119 0.0 0.0 0.00 0.00 0.00 83 1016.5
20260905084045 80 115 0.0 0.0 0.00 0.00 0.00 82 1016.5
20260905083539 80 136 0.0 1.0 0.00 0.00 0.00 79 1016.5
20260905083036 80 136 0.0 0.0 0.00 0.00 0.00 80 1016.6
20260905082531 80 118 0.0 2.0 0.00 0.00 0.00 81 1016.7
20260905082027 81 140 0.0 3.0 0.00 0.00 0.00 81 1016.4
20260905081526 81 75 1.0 6.0 0.00 0.00 0.00 83 1016.7
20260905081021 80 26 3.0 6.0 0.00 0.00 0.00 84 1016.6
20260905080520 79 37 3.0 8.0 0.00 0.00 0.00 88 1017.0
20260905080016 78 30 2.0 2.0 0.00 0.00 0.00 94 1016.6
20260905075509 79 123 0.0 0.0 0.00 0.00 0.00 93 1016.2
20260905075009 79 120 0.0 0.0 0.00 0.00 0.00 92 1016.4
20260905074504 79 121 0.0 0.0 0.00 0.00 0.00 92 1016.4
20260905073959 79 128 0.0 0.0 0.00 0.00 0.00 92 1016.4
20260905073454 79 121 0.0 0.0 0.00 0.00 0.00 92 1016.5
20260905072949 78 163 1.0 2.0 0.00 0.00 0.00 95 1016.7
20260905072444 77 152 1.0 1.0 0.00 0.00 0.00 97 1017.0
20260905071940 77 124 0.0 1.0 0.00 0.00 0.00 99 1016.7
20260905071437 76 130 0.0 1.0 0.00 0.00 0.00 99 1017.2
20260905070936 76 94 0.0 1.0 0.00 0.00 0.00 99 1017.0
20260905070432 75 120 0.0 0.0 0.00 0.00 0.00 99 1016.8
20260905065932 75 120 0.0 0.0 0.00 0.00 0.00 99 1016.9
20260905065430 75 120 0.0 0.0 0.00 0.00 0.00 99 1017.0
20260905064926 75 120 0.0 0.0 0.00 0.00 0.00 99 1016.9
20260905064420 75 120 0.0 0.0 0.00 0.00 0.00 99 1017.1
20260905063915 75 120 0.0 0.0 0.00 0.00 0.00 99 1017.0
20260905063410 75 120 0.0 0.0 0.00 0.00 0.00 99 1017.3
20260905062906 75 120 0.0 0.0 0.00 0.00 0.00 99 1017.3
20260905062400 75 120 0.0 0.0 0.00 0.00 0.00 99 1017.3
20260905061855 75 120 0.0 0.0 0.00 0.00 0.00 99 1017.5
20260905061354 75 120 0.0 0.0 0.00 0.00 0.00 99 1017.5
20260905060849 76 120 0.0 0.0 0.00 0.00 0.00 99 1017.6
20260905060346 75 120 0.0 0.0 0.00 0.00 0.00 99 1017.5
20260905055844 76 120 0.0 0.0 0.00 0.00 0.00 99 1017.6
20260905055340 76 120 0.0 0.0 0.00 0.00 0.00 99 1017.6
20260905054839 76 120 0.0 0.0 0.00 0.00 0.00 99 1017.5
20260905054336 76 120 0.0 0.0 0.00 0.00 0.00 99 1017.7
20260905053835 76 120 0.0 0.0 0.00 0.00 0.00 98 1017.7
20260905053336 76 120 0.0 0.0 0.00 0.00 0.00 98 1017.7
20260905052831 76 120 0.0 0.0 0.00 0.00 0.00 98 1017.5
20260905052331 76 120 0.0 0.0 0.00 0.00 0.00 98 1017.6
20260905051830 76 120 0.0 0.0 0.00 0.00 0.00 98 1017.7
20260905051326 76 117 0.0 0.0 0.00 0.00 0.00 98 1017.9
20260905050823 76 117 0.0 0.0 0.00 0.00 0.00 98 1017.9
20260905050313 76 117 0.0 0.0 0.00 0.00 0.00 98 1017.7
20260905045808 77 117 0.0 0.0 0.00 0.00 0.00 97 1017.5
20260905045305 77 117 0.0 0.0 0.00 0.00 0.00 97 1017.7
20260905044759 77 121 0.0 0.0 0.00 0.00 0.00 97 1017.7
20260905044254 76 122 0.0 0.0 0.00 0.00 0.00 97 1017.7
20260905043752 77 114 0.0 0.0 0.00 0.00 0.00 97 1017.9
20260905043247 77 118 0.0 0.0 0.00 0.00 0.00 97 1017.7
20260905042742 77 118 0.0 0.0 0.00 0.00 0.00 96 1017.8
20260905042241 77 118 0.0 0.0 0.00 0.00 0.00 96 1017.6
20260905041737 77 118 0.0 0.0 0.00 0.00 0.00 96 1017.7
20260905041232 77 118 0.0 0.0 0.00 0.00 0.00 96 1017.7
20260905040727 77 113 0.0 0.0 0.00 0.00 0.00 96 1017.7
20260905040226 77 106 0.0 1.0 0.00 0.00 0.00 95 1017.7
20260905035726 77 119 0.0 0.0 0.00 0.00 0.00 95 1017.8
20260905035223 77 119 0.0 0.0 0.00 0.00 0.00 95 1017.8
20260905034719 77 119 0.0 0.0 0.00 0.00 0.00 95 1017.7
20260905034218 77 119 0.0 0.0 0.00 0.00 0.00 94 1017.7
20260905033717 77 119 0.0 0.0 0.00 0.00 0.00 94 1017.7
20260905033213 77 119 0.0 0.0 0.00 0.00 0.00 94 1017.5
20260905032712 77 119 0.0 0.0 0.00 0.00 0.00 94 1017.8
20260905032207 78 119 0.0 0.0 0.00 0.00 0.00 93 1017.8
20260905031703 78 119 0.0 0.0 0.00 0.00 0.00 93 1017.6
20260905031158 78 120 0.0 0.0 0.00 0.00 0.00 93 1017.8
20260905030653 78 119 0.0 0.0 0.00 0.00 0.00 93 1017.7
20260905030149 78 119 0.0 0.0 0.00 0.00 0.00 93 1017.6
20260905025643 78 119 0.0 0.0 0.00 0.00 0.00 92 1017.6
20260905025139 78 119 0.0 0.0 0.00 0.00 0.00 92 1017.9
20260905024635 78 119 0.0 0.0 0.00 0.00 0.00 92 1017.8
20260905024130 79 119 0.0 0.0 0.00 0.00 0.00 91 1017.8
20260905023626 79 118 0.0 0.0 0.00 0.00 0.00 91 1017.8
20260905023125 79 122 0.0 0.0 0.00 0.00 0.00 91 1017.5
20260905022624 79 122 0.0 0.0 0.00 0.00 0.00 90 1017.6
20260905022119 79 122 0.0 0.0 0.00 0.00 0.00 89 1017.7
20260905021614 79 122 0.0 0.0 0.00 0.00 0.00 89 1017.7
20260905021110 79 122 0.0 0.0 0.00 0.00 0.00 89 1017.7
20260905020609 80 122 0.0 0.0 0.00 0.00 0.00 88 1017.5
20260905020104 80 121 0.0 0.0 0.00 0.00 0.00 88 1017.6
20260905015603 80 122 0.0 0.0 0.00 0.00 0.00 88 1017.4
20260905015057 80 122 0.0 0.0 0.00 0.00 0.00 87 1017.6
20260905014551 80 122 0.0 0.0 0.00 0.00 0.00 86 1017.6
20260905014047 80 122 0.0 0.0 0.00 0.00 0.00 86 1017.5
20260905013544 81 122 0.0 0.0 0.00 0.00 0.00 86 1017.5
20260905013039 81 122 0.0 0.0 0.00 0.00 0.00 85 1017.3
20260905012538 81 122 0.0 0.0 0.00 0.00 0.00 84 1017.2
20260905012036 81 122 0.0 0.0 0.00 0.00 0.00 84 1017.2
20260905011531 82 122 0.0 0.0 0.00 0.00 0.00 84 1017.3
20260905011026 82 122 0.0 0.0 0.00 0.00 0.00 84 1017.3
20260905010521 82 122 0.0 0.0 0.00 0.00 0.00 84 1016.9
20260905010018 82 122 0.0 0.0 0.00 0.00 0.00 83 1017.1
20260905005513 83 123 0.0 0.0 0.00 0.00 0.00 82 1017.0
20260905005009 83 123 0.0 0.0 0.00 0.00 0.00 81 1016.9
20260905004508 84 128 0.0 0.0 0.00 0.00 0.00 80 1016.9
20260905004003 84 128 0.0 0.0 0.00 0.00 0.00 80 1016.9
20260905003459 84 128 0.0 0.0 0.00 0.00 0.00 78 1017.0
20260905002954 85 128 0.0 0.0 0.00 0.00 0.00 77 1016.8
20260905002450 86 128 0.0 0.0 0.00 0.00 0.00 75 1016.7
20260905001943 86 128 0.0 0.0 0.00 0.00 0.00 74 1016.7
20260905001438 87 128 0.0 0.0 0.00 0.00 0.00 72 1016.6
20260905000933 88 128 0.0 0.0 0.00 0.00 0.00 71 1016.7
20260905000431 88 128 0.0 0.0 0.00 0.00 0.00 68 1016.7
20260904235924 89 128 0.0 0.0 0.00 0.00 0.00 67 1016.7
20260904235419 89 122 0.0 0.0 0.00 0.00 0.00 65 1016.6
20260904234913 91 106 0.0 1.0 0.00 0.00 0.00 64 1016.6
20260904234408 91 118 0.0 0.0 0.00 0.00 0.00 62 1016.7
20260904233904 92 129 0.0 0.0 0.00 0.00 0.00 61 1016.6
20260904233359 94 108 0.0 0.0 0.00 0.00 0.00 59 1016.7
20260904232856 95 112 0.0 1.0 0.00 0.00 0.00 56 1016.6
20260904232352 97 126 0.0 0.0 0.00 0.00 0.00 52 1016.5
20260904231848 98 109 0.0 1.0 0.00 0.00 0.00 50 1016.4
20260904231343 98 136 0.0 1.0 0.00 0.00 0.00 51 1016.8
20260904230838 98 117 0.0 2.0 0.00 0.00 0.00 50 1016.7
20260904230336 99 34 2.0 2.0 0.00 0.00 0.00 50 1016.8
20260904225831 99 125 0.0 2.0 0.00 0.00 0.00 48 1016.9
20260904225329 100 156 0.0 2.0 0.00 0.00 0.00 48 1017.0
20260904224824 100 193 1.0 1.0 0.00 0.00 0.00 45 1016.8
20260904224320 100 148 0.0 1.0 0.00 0.00 0.00 44 1016.9
20260904223818 100 156 0.0 1.0 0.00 0.00 0.00 46 1016.9
20260904223313 100 68 1.0 2.0 0.00 0.00 0.00 44 1017.1
20260904222810 101 118 1.0 3.0 0.00 0.00 0.00 44 1017.0
20260904222306 100 107 1.0 1.0 0.00 0.00 0.00 44 1017.0
20260904221759 100 26 1.0 3.0 0.00 0.00 0.00 45 1017.0
20260904221259 101 125 2.0 2.0 0.00 0.00 0.00 43 1017.2
20260904220754 101 150 0.0 5.0 0.00 0.00 0.00 45 1017.1
20260904220253 102 348 2.0 2.0 0.00 0.00 0.00 45 1017.0
20260904215749 102 171 2.0 3.0 0.00 0.00 0.00 45 1017.0
20260904215244 101 33 2.0 3.0 0.00 0.00 0.00 44 1017.1
20260904214739 102 92 1.0 2.0 0.00 0.00 0.00 43 1017.0
20260904214235 102 127 1.0 3.0 0.00 0.00 0.00 42 1017.0
20260904213733 102 79 1.0 2.0 0.00 0.00 0.00 42 1017.2
20260904213229 101 140 1.0 2.0 0.00 0.00 0.00 45 1017.3
20260904212725 101 219 3.0 5.0 0.00 0.00 0.00 45 1017.2
20260904212219 102 121 1.0 3.0 0.00 0.00 0.00 44 1017.3
20260904211719 102 30 1.0 3.0 0.00 0.00 0.00 42 1017.3
20260904211214 102 212 1.0 2.0 0.00 0.00 0.00 43 1017.4
20260904210709 102 113 1.0 3.0 0.00 0.00 0.00 44 1017.3
20260904210204 102 39 3.0 5.0 0.00 0.00 0.00 43 1017.3
20260904205700 103 238 1.0 2.0 0.00 0.00 0.00 42 1017.3
20260904205156 102 151 1.0 3.0 0.00 0.00 0.00 43 1017.2
20260904204652 101 128 1.0 3.0 0.00 0.00 0.00 44 1017.3
20260904204147 101 238 2.0 5.0 0.00 0.00 0.00 44 1017.5
20260904203643 102 135 2.0 2.0 0.00 0.00 0.00 43 1017.5
20260904203140 101 240 3.0 5.0 0.00 0.00 0.00 44 1017.7
20260904202635 100 162 1.0 5.0 0.00 0.00 0.00 45 1017.6
20260904202131 100 113 1.0 5.0 0.00 0.00 0.00 44 1017.8
20260904201626 100 123 2.0 5.0 0.00 0.00 0.00 46 1018.0
20260904201121 100 28 1.0 3.0 0.00 0.00 0.00 45 1017.9
20260904200621 100 148 1.0 5.0 0.00 0.00 0.00 45 1017.8
20260904200116 100 315 3.0 6.0 0.00 0.00 0.00 46 1017.8
20260904195614 98 186 0.0 3.0 0.00 0.00 0.00 48 1017.9
20260904195108 98 108 0.0 2.0 0.00 0.00 0.00 48 1018.1
20260904194608 100 326 3.0 3.0 0.00 0.00 0.00 47 1018.3
20260904194103 101 142 0.0 3.0 0.00 0.00 0.00 44 1018.3
20260904193557 100 19 1.0 2.0 0.00 0.00 0.00 45 1018.3
20260904193054 101 191 3.0 6.0 0.00 0.00 0.00 45 1018.3
20260904192553 101 245 4.0 7.0 0.00 0.00 0.00 46 1018.5
20260904192049 99 20 2.0 2.0 0.00 0.00 0.00 44 1018.5
20260904191540 99 182 0.0 1.0 0.00 0.00 0.00 46 1018.7
20260904191036 100 317 2.0 5.0 0.00 0.00 0.00 44 1018.8
20260904190532 99 138 0.0 2.0 0.00 0.00 0.00 47 1018.8
20260904190028 100 69 0.0 3.0 0.00 0.00 0.00 46 1018.8
20260904185524 101 77 1.0 5.0 0.00 0.00 0.00 44 1018.8
20260904185018 100 158 2.0 5.0 0.00 0.00 0.00 45 1018.9
20260904184513 98 125 1.0 2.0 0.00 0.00 0.00 47 1019.0
20260904184008 99 121 1.0 7.0 0.00 0.00 0.00 46 1019.1
20260904183503 101 345 1.0 6.0 0.00 0.00 0.00 43 1019.3
20260904182958 103 137 0.0 3.0 0.00 0.00 0.00 44 1019.3
20260904182454 101 254 1.0 5.0 0.00 0.00 0.00 44 1019.2
20260904181953 101 200 2.0 6.0 0.00 0.00 0.00 44 1019.3
20260904181449 102 22 3.0 5.0 0.00 0.00 0.00 42 1019.2
20260904180944 101 271 3.0 3.0 0.00 0.00 0.00 43 1019.3
20260904180439 101 244 4.0 8.0 0.00 0.00 0.00 44 1019.4
20260904175938 101 192 2.0 3.0 0.00 0.00 0.00 45 1019.2
20260904175437 101 278 4.0 6.0 0.00 0.00 0.00 44 1019.5
20260904174932 100 106 3.0 5.0 0.00 0.00 0.00 46 1019.6
20260904174427 100 152 0.0 5.0 0.00 0.00 0.00 46 1019.5
20260904173924 100 35 2.0 6.0 0.00 0.00 0.00 46 1019.9
20260904173419 101 331 5.0 7.0 0.00 0.00 0.00 46 1019.9
20260904172914 100 98 0.0 5.0 0.00 0.00 0.00 46 1019.7
20260904172414 99 268 2.0 5.0 0.00 0.00 0.00 47 1019.7
20260904171903 99 295 1.0 6.0 0.00 0.00 0.00 46 1019.9
20260904171358 99 88 2.0 7.0 0.00 0.00 0.00 47 1019.8
20260904170854 98 168 0.0 3.0 0.00 0.00 0.00 47 1019.6
20260904170350 100 114 1.0 8.0 0.00 0.00 0.00 47 1019.9
20260904165844 101 130 2.0 2.0 0.00 0.00 0.00 46 1020.0
20260904165338 101 154 1.0 5.0 0.00 0.00 0.00 45 1019.8
20260904164832 101 119 1.0 5.0 0.00 0.00 0.00 45 1019.8
20260904164326 100 252 2.0 5.0 0.00 0.00 0.00 45 1019.9
20260904163824 100 211 3.0 3.0 0.00 0.00 0.00 46 1019.9
20260904163323 100 12 3.0 8.0 0.00 0.00 0.00 45 1020.0
20260904162822 100 54 4.0 7.0 0.00 0.00 0.00 46 1019.9
20260904162318 99 343 2.0 5.0 0.00 0.00 0.00 47 1019.8
20260904161813 99 272 3.0 3.0 0.00 0.00 0.00 48 1019.7
20260904161308 100 125 0.0 5.0 0.00 0.00 0.00 47 1020.0
20260904160804 100 220 2.0 5.0 0.00 0.00 0.00 45 1020.0
20260904160258 99 224 0.0 3.0 0.00 0.00 0.00 46 1020.0
20260904155753 98 264 4.0 6.0 0.00 0.00 0.00 48 1019.9
20260904155252 98 91 2.0 6.0 0.00 0.00 0.00 48 1020.0
20260904154751 99 331 2.0 5.0 0.00 0.00 0.00 49 1020.1
20260904154246 98 275 4.0 6.0 0.00 0.00 0.00 50 1020.0
20260904153741 99 124 1.0 2.0 0.00 0.00 0.00 49 1020.0
20260904153231 97 99 2.0 5.0 0.00 0.00 0.00 52 1020.1
20260904152727 98 356 3.0 5.0 0.00 0.00 0.00 53 1020.0
20260904152222 98 141 0.0 1.0 0.00 0.00 0.00 55 1019.9
20260904151717 98 152 0.0 1.0 0.00 0.00 0.00 55 1020.1
20260904151216 98 155 1.0 2.0 0.00 0.00 0.00 55 1020.0
20260904150712 97 112 0.0 1.0 0.00 0.00 0.00 56 1020.0
20260904150207 96 122 0.0 1.0 0.00 0.00 0.00 58 1019.9
20260904145705 96 174 3.0 3.0 0.00 0.00 0.00 59 1020.0
20260904145201 95 277 2.0 2.0 0.00 0.00 0.00 60 1020.1
20260904144656 94 142 1.0 3.0 0.00 0.00 0.00 62 1020.0
20260904144152 93 154 2.0 2.0 0.00 0.00 0.00 64 1020.1
20260904143647 93 132 1.0 2.0 0.00 0.00 0.00 64 1020.1
20260904143144 94 145 1.0 1.0 0.00 0.00 0.00 65 1020.0
20260904142640 93 138 1.0 2.0 0.00 0.00 0.00 64 1020.0
20260904142136 94 141 1.0 1.0 0.00 0.00 0.00 63 1020.0
20260904141630 92 167 0.0 0.0 0.00 0.00 0.00 66 1020.2
20260904141126 92 132 0.0 0.0 0.00 0.00 0.00 66 1020.1
20260904140621 91 128 0.0 0.0 0.00 0.00 0.00 69 1020.2
20260904140115 89 128 0.0 0.0 0.00 0.00 0.00 72 1020.3
20260904135614 88 130 0.0 1.0 0.00 0.00 0.00 74 1019.9
20260904135111 88 128 0.0 1.0 0.00 0.00 0.00 75 1019.8
20260904134606 86 131 0.0 0.0 0.00 0.00 0.00 79 1020.1
20260904134100 85 141 0.0 2.0 0.00 0.00 0.00 81 1020.0
20260904133555 85 137 1.0 1.0 0.00 0.00 0.00 81 1020.1
20260904133051 84 128 0.0 0.0 0.00 0.00 0.00 83 1020.2
20260904132551 82 134 1.0 1.0 0.00 0.00 0.00 87 1020.1
20260904132051 80 114 0.0 1.0 0.00 0.00 0.00 92 1020.1
20260904131545 78 131 0.0 0.0 0.00 0.00 0.00 99 1019.9
20260904131041 77 123 0.0 0.0 0.00 0.00 0.00 99 1020.1
20260904130540 76 122 0.0 0.0 0.00 0.00 0.00 99 1020.0
20260904130035 76 117 0.0 0.0 0.00 0.00 0.00 99 1020.2
20260904125532 76 124 0.0 0.0 0.00 0.00 0.00 99 1019.9
20260904125026 76 120 0.0 0.0 0.00 0.00 0.00 99 1019.9
20260904124522 75 122 0.0 0.0 0.00 0.00 0.00 99 1020.0
20260904124018 75 119 0.0 0.0 0.00 0.00 0.00 99 1019.8
20260904123517 75 123 0.0 0.0 0.00 0.00 0.00 99 1019.8
20260904123013 75 123 0.0 0.0 0.00 0.00 0.00 99 1019.8
20260904122508 74 123 0.0 0.0 0.00 0.00 0.00 99 1019.6
20260904122002 74 119 0.0 0.0 0.00 0.00 0.00 99 1019.7
20260904121458 73 120 0.0 0.0 0.00 0.00 0.00 99 1019.6
20260904120954 73 119 0.0 0.0 0.00 0.00 0.00 99 1019.7